« Back
NWS Peachtree City, Ga » Text Product » GA Regional Weather Roundup


Printer-friendly Version
Current Version              Previous Versions:   1  2  3  4  5  6  7  8  9  

Regional Weather Roundup

049
ASUS42 KFFC 071803
RWRGA
WEATHER ROUNDUP FOR GEORGIA
NATIONAL WEATHER SERVICE PEACHTREE CITY GA
200 PM EDT TUE JUL 07 2015

NOTE: "FAIR" INDICATES FEW OR NO CLOUDS BELOW 12,000 FEET WITH NO
SIGNIFICANT WEATHER AND/OR OBSTRUCTIONS TO VISIBILITY.

* = USE WITH CAUTION. THE STATIONS MARKED WITH AN ASTERISK MAY NOT
REPORT WEATHER SUCH AS PRECIPITATION, FOG, OR THUNDER AND ARE NOT
QUALITY CONTROLLED BY NWS.

THE REMARK "TC" DENOTES TEMPERATURE READING IN DEGREES CELSIUS.

GAZ001>058-071900-
NORTH GEORGIA

CITY           SKY/WX    TMP DP  RH WIND       PRES   REMARKS
ATLANTA        MOSUNNY   85  70  60 SW10      30.17F
6HR MIN TEMP:  74; 6HR MAX TEMP:  87;

ATHENS         MOSUNNY   91  69  48 VRB7      30.16F HX  96
6HR MIN TEMP:  73; 6HR MAX TEMP:  91;

CHAMBLEE       MOSUNNY   88  68  51 VRB5      30.17F HX  91
6HR MIN TEMP:  72; 6HR MAX TEMP:  88;

PEACHTREE CITY MOSUNNY   87  71  58 W7        30.18F HX  93
6HR MIN TEMP:  72; 6HR MAX TEMP:  88;

ROME           SUNNY     89  70  53 VRB6G20   30.13F HX  94
6HR MIN TEMP:  70; 6HR MAX TEMP:  89;

WEST ATLANTA   PTSUNNY   87  69  54 W7        30.16F HX  91
6HR MIN TEMP:  71; 6HR MAX TEMP:  88;

GAINESVILLE    MOSUNNY   86  69  56 W7G16     30.19F HX  90
6HR MIN TEMP:  73; 6HR MAX TEMP:  86;

CARTERSVILLE   SUNNY     87  72  60 VRB5      30.15F HX  93
6HR MIN TEMP:  71; 6HR MAX TEMP:  88;



CITY           SKY/WX    TMP DP  RH WIND       PRES   REMARKS
DALTON*        PTSUNNY   86  72  62 S7        30.15S HX  92
LAWRENCEVILLE* PTSUNNY   84  66  54 CALM      30.16F
MARIETTA       MOSUNNY   88  70  55 SW6       30.17F HX  93
KENNESAW*      MOSUNNY  N/A N/A N/A W6        30.18F
BLAIRSVILLE*     N/A     84  34  16 CALM      30.21S
$$

GAZ059>098-102>109-071900-
CENTRAL GEORGIA

CITY           SKY/WX    TMP DP  RH WIND       PRES   REMARKS
AUGUSTA-BUSH   PTSUNNY   88  70  55 SW6       30.12F HX  93
6HR MIN TEMP:  74; 6HR MAX TEMP:  90;

AUGUSTA-DANIEL MOSUNNY   90  68  48 NW9       30.14F HX  94
6HR MIN TEMP:  75; 6HR MAX TEMP:  91;

COLUMBUS       PTSUNNY   87  69  54 VRB7      30.16F HX  91
6HR MIN TEMP:  72; 6HR MAX TEMP:  88;

MACON          MOSUNNY   92  69  47 VRB5      30.15F HX  97
6HR MIN TEMP:  72; 6HR MAX TEMP:  92;

ROBINS AFB     MOSUNNY   89  71  53 VRB5      30.14F HX  95


CITY           SKY/WX    TMP DP  RH WIND       PRES   REMARKS
LAGRANGE*      MOSUNNY   91  78  64 W7        30.17F HX 105
SYLVANIA*      MOSUNNY   91  73  56 W5        30.14F HX  99
MILLEDGEVILLE* MOSUNNY   88  68  51 CALM      30.15F HX  91
$$

GAZ099>101-110>166-071900-
SOUTH GEORGIA

CITY           SKY/WX    TMP DP  RH WIND       PRES   REMARKS
SAVANNAH       PTSUNNY   88  69  53 SW8       30.13F HX  92
6HR MIN TEMP:  74; 6HR MAX TEMP:  90;

VALDOSTA       MOSUNNY   89  70  53 VRB5      30.15F HX  94
6HR MIN TEMP:  75; 6HR MAX TEMP:  90;

ALMA           MOSUNNY   88  69  53 W5        30.15F HX  92
6HR MIN TEMP:  74; 6HR MAX TEMP:  89;

ST SIMONS      SUNNY     86  72  62 SE10      30.15F HX  92
6HR MIN TEMP:  76; 6HR MAX TEMP:  87;

FT STEWART     PTSUNNY   90  70  51 VRB3      30.11F HX  96
ALBANY         PTSUNNY   90  71  53 S6        30.17F HX  96
HUNTER AFB     MOSUNNY   88  76  67 VRB7      30.11F HX  99
MOODY AFB      CLOUDY    89  71  54 VRB6      30.14F HX  94
BRUNSWICK      MOSUNNY   90  72  55 S6        30.15F HX  96


CITY           SKY/WX    TMP DP  RH WIND       PRES   REMARKS
BAINBRIDGE*    MOSUNNY   95  75  52 NW3       30.16F HX 107
MOULTRIE*      SUNNY     88  70  55 SW5       30.17F HX  92
VIDALIA*       SUNNY     90  68  48 NE3       30.15F HAZE    HX  93
WAYCROSS*      SUNNY     92  74  55 N5        30.14F HX 103
DOUGLAS*       MOSUNNY   90  70  51 W5        30.17F HX  95
$$



USA.gov is the U.S. government's official web portal to all federal, state and local government web resources and services.